Regional Weather Roundup
Issued by NWS Upton, NY

Current Version | Previous Version | Graphics & Text | Print | Product List | Glossary Off
Versions: 1 2 3 4 5 6 7 8 9 10 11 12 13 14 15 16 17 18 19 20 21 22 23 24 25 26 27 28 29 30 31 32 33 34 35 36 37 38 39 40 41 42 43 44 45 46 47 48 49 50

000
ASUS41 KOKX 271605
RWROKX

REGIONAL WEATHER ROUNDUP
NATIONAL WEATHER SERVICE NEW YORK NY
1100 AM EST TUE JAN 27 2015

NOTE: "FAIR" INDICATES FEW OR NO CLOUDS BELOW 12,000 FEET WITH NO
SIGNIFICANT WEATHER AND/OR OBSTRUCTIONS TO VISIBILITY.

NYZ071-072-176-178-NJZ106-104-271700-
NEW YORK CITY METRO AREA


CITY           SKY/WX    TMP DP  RH WIND       PRES   REMARKS
CENTRAL PARK   LGT SNOW  25  17  72 NW8G21    29.70S WCI  16
LAGUARDIA APRT LGT SNOW  24  17  74 NW20G25   29.68S WCI  10
KENNEDY INTL   SNOW      24  18  77 NW18G26   29.68S VSB 1/2 WCI  10
NEWARK/LIBERTY FLURRIES  26  19  74 NW15G22   29.70F WCI  14
BRNX BOT. GARD   N/A    N/A N/A N/A N17       29.67F
TETERBORO      FLURRIES  26  16  65 NW16G22   29.69F WCI  14
$$

NYZ177-179-078>081-271700-
LONG ISLAND NEW YORK

CITY           SKY/WX    TMP DP  RH WIND       PRES   REMARKS
FARMINGDALE    HAZE      21  16  81 N16G26    29.64R VSB 3/4 WCI   7
ISLIP          LGT SNOW  22  17  81 N21G37    29.60R BLWGSNOWWCI   6
SHIRLEY        MIX PCPN  23  17  78 N18G24    29.60S WCI   9
WESTHAMPTON    CLOUDY    24  16  71 N22G37    29.58R HAZE    WCI   9
MONTAUK POINT    N/A     23  16  74 N22G30    29.53R WCI   8
$$

NYZ052-065-067-271700-
HUDSON VALLEY

CITY           SKY/WX    TMP DP  RH WIND       PRES   REMARKS
WHITE PLAINS   SNOW      18  13  80 NW24G36   29.64S VSB 1/2 WCI   0
NEWBURGH       LGT SNOW  18  14  86 N14       29.74S FOG     WCI   4
MONTGOMERY     LGT SNOW  21  11  65 N7        29.73S WCI  12
POUGHKEEPSIE   LGT SNOW  18  11  74 N12G22    29.75F VSB 1   WCI   5
ALBANY         LGT SNOW  13   7  77 N9        29.84F VSB 3/4 WCI   1
$$

NJZ001-105-106-008-010-013-015-019>022-104-271700-
NEW JERSEY

CITY           SKY/WX    TMP DP  RH WIND       PRES   REMARKS
NEWARK/LIBERTY FLURRIES  26  19  74 NW15G22   29.70F WCI  14
TETERBORO      FLURRIES  26  16  65 NW16G22   29.69F WCI  14
CALDWELL       CLOUDY    24  16  71 NW13      29.71F WCI  12
MORRISTOWN     LGT SNOW  23  16  74 NW13G21   29.72F WCI  11
SOMERVILLE     LGT SNOW  24  17  74 NW9       29.72F VSB 1   WCI  14
SUSSEX         LGT SNOW  20  12  71 MISG      29.74S
ANDOVER          N/A     20  13  74 N10       29.74S WCI   9
TRENTON        LGT SNOW  24  19  81 NW14G23   29.72F VSB 1   WCI  12
MILLVILLE      CLOUDY    30  23  75 NW13G25   29.73F WCI  20
ATLANTIC CITY  FLURRIES  28  22  78 N17G29    29.70S WCI  16
WRIGHTSTOWN    LGT SNOW  26  21  82 NW21      29.69F WCI  11
TOMS RIVER     CLOUDY    27  19  74 NW14G22   29.69S WCI  15
BELMAR         CLOUDY    25  18  74 NW18      29.68S WCI  11
$$

PAZ047>061-062-071-271700-
EASTERN PENNSYLVANIA

CITY           SKY/WX    TMP DP  RH WIND       PRES   REMARKS
PHILADELPHIA   CLOUDY    29  21  72 NW15      29.76F WCI  18
ALLENTOWN      PTSUNNY   26   7  44 N10       29.77S WCI  16
SCRANTON       CLOUDY    21   8  57 NW13      29.79R WCI   9
$$

CTZ002-004>006-009-010-012-RIZ004-006-007-MAZ004-011-015-271700-
SOUTHERN NEW ENGLAND
 IN CT

CITY           SKY/WX    TMP DP  RH WIND       PRES   REMARKS
BRADLEY INTL   LGT SNOW  22  13  68 N29G38    29.60F WCI   4
HARTFORD       CLOUDY    22  15  75 N13G22    29.63S FOG     WCI  10
DANBURY        SNOW      16   9  74 NW15G21   29.65F VSB 1/2 WCI   1
WTRBRY/OXFORD  NOT AVBL
BRIDGEPORT     LGT SNOW  20  14  77 NW18G26   29.62F WCI   5
MERIDEN        CLOUDY    25  15  66 N17G28    29.61F HAZE    WCI  12
NEW HAVEN      CLOUDY    26  17  68 N23G33    29.58F WCI  11
CHESTER        LGT SNOW  21  16  79 N22G39    29.54F VSB 3/4 WCI   5
GROTON         CLOUDY    21  14  74 N23G38    29.50F HAZE    WCI   5
WILLIMANTIC    LGT SNOW  21  16  81 NW10G21   29.56S VSB 3/4 WCI  10

 IN RI

CITY           SKY/WX    TMP DP  RH WIND       PRES   REMARKS
PROVIDENCE     HVY SNOW  17  13  84 N22G33    29.50S VSB 1/4 WCI   0
BLOCK ISLAND     N/A     19  12  73 N22G36    29.45S VSB 3/4 WCI   3
WESTERLY       CLOUDY    20  14  77 N18G31    29.50F HAZE    WCI   5

 IN MA

CITY           SKY/WX    TMP DP  RH WIND       PRES   REMARKS
BOSTON         HVY SNOW  15  12  88 N24G30    29.51F VSB 1/4 WCI  -4
WORCESTER      FOG       17  13  84 N24G39    29.47F VSB 1/2 WCI  -1
WESTFIELD      LGT SNOW  22  13  68 N20G31    29.61F WCI   7
PROVINCETOWN     N/A    N/A N/A N/A MISG        N/A
NANTUCKET      HVY SNOW  32  28  85 N46G63    29.19F VSB 1/4 WCI  15
$$

ANZ330-335-338-340-345-350-353-355-271700-
COASTAL MARINE OBSERVATIONS


STATION/POSITION TIME  SKY/WX   TEMP    WIND        PRES    VSBY  WAVE
                                AIR SEA DIR/SP/G                  HT/PER
                 (UTC)          (F)     (DEG/KT/KT) (MB)    (MI)  (FT/S)
NY HARB ENTRANCE 1600            27 40  340/ 25/ 31 1004.0         11/11
4S FIRE IS       1600               38                N/A           9/13
20S FIRE ISLAND  1500               43              1002.9         14/11
23SW MTP         1500                                 N/A          14/11
HUDSON CANYON    NOT AVBL
EXECUTION ROCKS  1600            23 34  330/ 19/ 25   N/A
WESTERN LI SOUND 1600            22     350/ 21/ 31   N/A           2/ 3
CENTRAL LI SOUND 1500            23 36  340/ 25/ 33   N/A           4/ 4
EASTERN LI SOUND NOT AVBL
ROBBINS REEF     1600            25     330/ 17/ 23 1004.4
$$


>>>>>>>>>>>>>>>>>>>>>>>>>>>> KEY <<<<<<<<<<<<<<<<<<<<<<<<<<<
>                                                          <
>     SKY/WX - SKY CONDITION/PRESENT WEATHER               <
>     TMP    - TEMPERATURE IN FAHRENHEIT                   <
>     DP     - DEWPOINT IN FAHRENHEIT                      <
>     RH     - RELATIVE HUMIDITY IN PERCENT                <
>     WIND   - DIRECTION AND SPEED IN MPH                  <
>     PRES   - MEAN SEA LEVEL PRESSURE IN INCHES OF HG     <
>     WCI    - WIND CHILL INDEX                            <
>     VSB    - VISIBILITY IN MILES                         <
>     HX     - HEAT INDEX                                  <
>     TC     - TEMPERATURE IN CELSIUS                      <
>     VRB    - VARIABLE WIND DIRECTION                     <
>                                                          <
>>>>>>>>>>>>>>>>>>>>>>>>>>>> KEY <<<<<<<<<<<<<<<<<<<<<<<<<<<





USA.gov is the U.S. government's official web portal to all federal, state and local government web resources and services.